LOT7003 EPBY-EPWA

Flight info

Callsign LOT7003
Flight time 0h 31m
Altitude 23000
Route INTUN DCT NASOK N195 SORIX
Aircraft E75S/M-SDE2E3FGIJ1RWY/HB1

Departure

Time 2026-05-04 17:17
Airport Ignacy Jan Paderewski Bydgoszcz Airport (EPBY)

Arrival

Time 2026-05-04 17:49
Airport Warsaw Chopin Airport (EPWA)
Time Latitude Longitude Altitude Speed Heading
2026-05-04 17:08 53.09457 17.99694 240 ft 0 kts 173°
2026-05-04 17:11 53.09464 17.99692 240 ft 2 kts 172°
2026-05-04 17:11 53.09494 17.99686 240 ft 2 kts 171°
2026-05-04 17:12 53.09508 17.99682 240 ft 2 kts 171°
2026-05-04 17:12 53.09538 17.99674 240 ft 2 kts 170°
2026-05-04 17:13 53.09574 17.99639 240 ft 2 kts 102°
2026-05-04 17:14 53.09572 17.99604 240 ft 0 kts 81°
2026-05-04 17:14 53.09572 17.99605 240 ft 0 kts 81°
2026-05-04 17:15 53.09586 17.99647 240 ft 6 kts 37°
2026-05-04 17:16 53.09734 17.99629 239 ft 14 kts 352°
2026-05-04 17:16 53.09694 17.97931 241 ft 135 kts 262°
2026-05-04 17:17 53.09558 17.96304 762 ft 142 kts 262°
2026-05-04 17:17 53.09139 17.91384 2888 ft 144 kts 263°
2026-05-04 17:18 53.09003 17.89764 3524 ft 147 kts 262°
2026-05-04 17:18 53.08590 17.85641 4013 ft 213 kts 246°
2026-05-04 17:19 53.05919 17.83693 5339 ft 244 kts 174°
2026-05-04 17:19 53.02561 17.84834 6883 ft 256 kts 158°
2026-05-04 17:20 53.00831 17.89885 8282 ft 283 kts 87°
2026-05-04 17:20 53.01558 17.96652 9144 ft 311 kts 81°
2026-05-04 17:20 53.01898 18.00224 9668 ft 321 kts 82°
2026-05-04 17:21 53.02575 18.07954 10311 ft 352 kts 83°
2026-05-04 17:21 53.03278 18.16258 11136 ft 371 kts 83°
2026-05-04 17:22 53.03635 18.20526 11785 ft 373 kts 83°
2026-05-04 17:22 53.03993 18.24817 12360 ft 375 kts 83°
2026-05-04 17:23 53.06197 18.37249 14033 ft 385 kts 60°
2026-05-04 17:23 53.07483 18.41177 14594 ft 387 kts 60°
2026-05-04 17:23 53.10070 18.49096 15668 ft 392 kts 60°
2026-05-04 17:24 53.11381 18.53117 16234 ft 395 kts 60°
2026-05-04 17:24 53.15332 18.65350 17706 ft 404 kts 65°
2026-05-04 17:25 53.15972 18.69886 18130 ft 407 kts 90°
2026-05-04 17:25 53.14498 18.78888 19058 ft 406 kts 115°
2026-05-04 17:26 53.12363 18.87685 19960 ft 412 kts 115°
2026-05-04 17:26 53.08919 19.01015 21243 ft 416 kts 128°
2026-05-04 17:27 53.05332 19.08661 22051 ft 419 kts 132°
2026-05-04 17:27 53.01633 19.16340 22588 ft 431 kts 131°
2026-05-04 17:28 52.97851 19.24164 22881 ft 437 kts 131°
2026-05-04 17:29 52.92119 19.35974 22891 ft 437 kts 131°
2026-05-04 17:29 52.86377 19.47751 22898 ft 436 kts 131°
2026-05-04 17:30 52.80307 19.58967 22903 ft 431 kts 136°
2026-05-04 17:31 52.76093 19.66201 22911 ft 434 kts 137°
2026-05-04 17:31 52.69799 19.76954 22913 ft 433 kts 137°
2026-05-04 17:32 52.65592 19.84145 22914 ft 432 kts 137°
2026-05-04 17:33 52.59282 19.94853 22913 ft 433 kts 137°
2026-05-04 17:33 52.57176 19.98412 22914 ft 434 kts 137°
2026-05-04 17:34 52.51258 20.08426 21750 ft 390 kts 137°
2026-05-04 17:34 52.49370 20.11619 20782 ft 389 kts 137°
2026-05-04 17:35 52.43781 20.21012 18116 ft 377 kts 137°
2026-05-04 17:35 52.40157 20.27124 16462 ft 366 kts 137°
2026-05-04 17:35 52.38422 20.30095 15662 ft 362 kts 137°
2026-05-04 17:36 52.36694 20.33082 14843 ft 358 kts 137°
2026-05-04 17:36 52.34991 20.36056 14062 ft 354 kts 137°
2026-05-04 17:36 52.33323 20.39000 13217 ft 350 kts 136°
2026-05-04 17:36 52.31704 20.41862 12460 ft 345 kts 136°
2026-05-04 17:37 52.30083 20.44711 11901 ft 335 kts 136°
2026-05-04 17:37 52.28610 20.47302 11438 ft 325 kts 136°
2026-05-04 17:37 52.27091 20.49976 11045 ft 311 kts 136°
2026-05-04 17:37 52.25677 20.52463 10781 ft 297 kts 136°
2026-05-04 17:38 52.24314 20.54874 10508 ft 281 kts 136°
2026-05-04 17:38 52.23172 20.56906 10370 ft 268 kts 136°
2026-05-04 17:38 52.21963 20.59074 10271 ft 256 kts 136°
2026-05-04 17:38 52.20713 20.61128 9733 ft 254 kts 150°
2026-05-04 17:39 52.17562 20.63920 8485 ft 264 kts 156°
2026-05-04 17:39 52.15973 20.65254 8069 ft 260 kts 157°
2026-05-04 17:39 52.14378 20.66589 7728 ft 255 kts 157°
2026-05-04 17:40 52.12811 20.67892 7393 ft 253 kts 157°
2026-05-04 17:40 52.11258 20.69173 7079 ft 252 kts 157°
2026-05-04 17:40 52.09716 20.70438 6940 ft 239 kts 157°
2026-05-04 17:40 52.08297 20.71613 6797 ft 226 kts 157°
2026-05-04 17:41 52.06934 20.72756 6633 ft 217 kts 157°
2026-05-04 17:41 52.05595 20.73885 6439 ft 210 kts 157°
2026-05-04 17:41 52.04337 20.74948 6297 ft 199 kts 157°
2026-05-04 17:41 52.03129 20.75975 6106 ft 194 kts 157°
2026-05-04 17:42 52.01942 20.76986 5849 ft 193 kts 157°
2026-05-04 17:42 52.00763 20.77990 5570 ft 193 kts 155°
2026-05-04 17:42 51.99849 20.79606 5262 ft 205 kts 112°
2026-05-04 17:42 51.99628 20.81896 4952 ft 209 kts 97°
2026-05-04 17:43 51.99525 20.84238 4759 ft 204 kts 97°
2026-05-04 17:43 51.99427 20.86522 4649 ft 204 kts 97°
2026-05-04 17:43 51.99330 20.88825 4560 ft 203 kts 97°
2026-05-04 17:43 51.99233 20.91058 4497 ft 195 kts 97°
2026-05-04 17:44 51.99138 20.93258 4401 ft 195 kts 97°
2026-05-04 17:44 51.99055 20.95421 4319 ft 195 kts 90°
2026-05-04 17:44 51.99543 20.97450 4229 ft 198 kts 50°
2026-05-04 17:44 52.00523 20.98989 4143 ft 198 kts 24°
2026-05-04 17:45 52.01834 20.99600 3910 ft 196 kts
2026-05-04 17:45 52.03187 21.00014 3536 ft 195 kts
2026-05-04 17:45 52.04471 21.00421 3119 ft 187 kts
2026-05-04 17:45 52.05722 21.00824 2726 ft 175 kts
2026-05-04 17:46 52.06899 21.01213 2239 ft 172 kts
2026-05-04 17:46 52.08057 21.01598 1825 ft 164 kts
2026-05-04 17:46 52.09124 21.01926 1580 ft 150 kts
2026-05-04 17:46 52.10122 21.01907 1365 ft 137 kts 348°
2026-05-04 17:47 52.11027 21.01551 1206 ft 134 kts 333°
2026-05-04 17:47 52.11848 21.00856 1080 ft 132 kts 324°
2026-05-04 17:47 52.12661 21.00115 977 ft 133 kts 329°
2026-05-04 17:47 52.13500 20.99398 807 ft 134 kts 327°
2026-05-04 17:48 52.14328 20.98678 641 ft 134 kts 329°
2026-05-04 17:48 52.15169 20.97940 487 ft 136 kts 328°
2026-05-04 17:48 52.15988 20.97226 364 ft 128 kts 329°
2026-05-04 17:48 52.16645 20.96649 362 ft 83 kts 331°
2026-05-04 17:49 52.17045 20.96304 362 ft 46 kts 338°
2026-05-04 17:49 52.17287 20.96246 362 ft 31 kts
2026-05-04 17:49 52.17382 20.96269 362 ft 8 kts 39°
2026-05-04 17:49 52.17392 20.96284 362 ft 0 kts 51°
2026-05-04 17:50 52.17400 20.96301 362 ft 5 kts 58°
2026-05-04 17:50 52.17434 20.96410 362 ft 17 kts 62°
2026-05-04 17:50 52.17495 20.96565 362 ft 14 kts 44°
2026-05-04 17:50 52.17555 20.96706 362 ft 15 kts 58°
2026-05-04 17:51 52.17616 20.96865 362 ft 17 kts 57°
2026-05-04 17:51 52.17685 20.97039 362 ft 18 kts 57°
2026-05-04 17:51 52.17732 20.97201 362 ft 13 kts 109°
2026-05-04 17:51 52.17651 20.97258 362 ft 13 kts 170°
2026-05-04 17:52 52.17601 20.97273 362 ft 4 kts 171°
2026-05-04 17:52 52.17598 20.97273 362 ft 0 kts 171°